TimeEST,TemperatureF,Dew PointF,Humidity,Sea Level PressureIn,VisibilityMPH,Wind Direction,Wind SpeedMPH,Gust SpeedMPH,PrecipitationIn,Events,Conditions,WindDirDegrees,DateUTC
12:15 AM,32.0,20.1,62,30.37,10.0,Calm,Calm,-,N/A,,Clear,0,2013-12-27 05:15:00
12:35 AM,30.9,20.1,64,30.37,10.0,Calm,Calm,-,N/A,,Clear,0,2013-12-27 05:35:00
12:55 AM,30.7,20.3,65,30.37,10.0,Calm,Calm,-,N/A,,Clear,0,2013-12-27 05:55:00
1:15 AM,29.3,19.9,68,30.37,10.0,Calm,Calm,-,N/A,,Clear,0,2013-12-27 06:15:00
1:35 AM,27.0,22.3,83,30.35,10.0,Calm,Calm,-,N/A,,Clear,0,2013-12-27 06:35:00
1:55 AM,31.1,20.3,64,30.36,10.0,SSW,3.5,-,N/A,,Clear,210,2013-12-27 06:55:00
2:15 AM,29.8,20.5,68,30.37,10.0,Calm,Calm,-,N/A,,Clear,0,2013-12-27 07:15:00
2:35 AM,29.5,20.8,70,30.36,10.0,Calm,Calm,-,N/A,,Clear,0,2013-12-27 07:35:00
2:55 AM,28.6,20.5,72,30.37,10.0,Calm,Calm,-,N/A,,Clear,0,2013-12-27 07:55:00
3:15 AM,28.9,20.8,72,30.37,10.0,Calm,Calm,-,N/A,,Clear,0,2013-12-27 08:15:00
3:35 AM,29.5,20.1,68,30.37,10.0,Calm,Calm,-,N/A,,Clear,0,2013-12-27 08:35:00
3:55 AM,29.3,20.7,70,30.37,10.0,Calm,Calm,-,N/A,,Clear,0,2013-12-27 08:55:00
4:15 AM,30.4,20.3,66,30.36,10.0,Calm,Calm,-,N/A,,Clear,0,2013-12-27 09:15:00
4:35 AM,30.0,20.3,67,30.36,10.0,Calm,Calm,-,N/A,,Clear,0,2013-12-27 09:35:00
4:55 AM,29.1,20.7,71,30.36,10.0,Calm,Calm,-,N/A,,Clear,0,2013-12-27 09:55:00
5:15 AM,29.1,20.5,70,30.36,10.0,South,3.5,-,N/A,,Clear,190,2013-12-27 10:15:00
5:35 AM,29.3,20.3,69,30.36,10.0,SSW,3.5,-,N/A,,Clear,200,2013-12-27 10:35:00
5:55 AM,28.9,20.5,71,30.37,10.0,Calm,Calm,-,N/A,,Clear,0,2013-12-27 10:55:00
6:15 AM,28.8,20.8,72,30.37,10.0,Calm,Calm,-,N/A,,Clear,0,2013-12-27 11:15:00
6:35 AM,28.4,20.7,73,30.37,10.0,South,4.6,-,N/A,,Clear,190,2013-12-27 11:35:00
6:55 AM,29.1,20.5,70,30.38,10.0,SSW,3.5,-,N/A,,Clear,200,2013-12-27 11:55:00
7:15 AM,28.4,20.3,72,30.38,10.0,South,4.6,-,N/A,,Clear,190,2013-12-27 12:15:00
7:35 AM,28.4,20.7,73,30.39,10.0,SSW,3.5,-,N/A,,Clear,200,2013-12-27 12:35:00
7:55 AM,27.5,21.0,77,30.40,10.0,SW,3.5,-,N/A,,Clear,220,2013-12-27 12:55:00
8:15 AM,28.2,21.2,75,30.40,10.0,SSW,3.5,-,N/A,,Clear,210,2013-12-27 13:15:00
8:35 AM,28.4,21.6,76,30.41,10.0,Calm,Calm,-,N/A,,Clear,0,2013-12-27 13:35:00
8:55 AM,28.4,22.3,78,30.42,10.0,Calm,Calm,-,N/A,,Clear,0,2013-12-27 13:55:00
9:15 AM,30.4,22.5,72,30.43,10.0,Calm,Calm,-,N/A,,Clear,0,2013-12-27 14:15:00
9:35 AM,32.0,23.2,70,30.43,10.0,South,3.5,-,N/A,,Clear,190,2013-12-27 14:35:00
9:55 AM,33.4,23.5,67,30.44,10.0,Calm,Calm,-,N/A,,Clear,0,2013-12-27 14:55:00
10:15 AM,34.9,23.7,64,30.44,10.0,SW,4.6,-,N/A,,Clear,220,2013-12-27 15:15:00
10:35 AM,35.8,23.5,61,30.44,10.0,SW,5.8,-,N/A,,Clear,230,2013-12-27 15:35:00
10:55 AM,37.2,23.0,56,30.44,10.0,SW,4.6,-,N/A,,Clear,220,2013-12-27 15:55:00
11:15 AM,38.5,23.0,54,30.44,10.0,SW,4.6,-,N/A,,Clear,220,2013-12-27 16:15:00
11:35 AM,40.1,23.4,51,30.44,10.0,SW,4.6,-,N/A,,Clear,220,2013-12-27 16:35:00
11:55 AM,41.7,23.2,48,30.43,10.0,SSW,4.6,-,N/A,,Clear,200,2013-12-27 16:55:00
12:15 PM,43.0,22.8,45,30.42,10.0,SW,5.8,-,N/A,,Clear,230,2013-12-27 17:15:00
12:35 PM,43.5,22.8,44,30.41,10.0,West,3.5,-,N/A,,Clear,280,2013-12-27 17:35:00
12:55 PM,44.2,22.6,42,30.40,10.0,West,5.8,-,N/A,,Clear,270,2013-12-27 17:55:00
1:15 PM,45.1,22.5,41,30.39,10.0,West,5.8,-,N/A,,Clear,260,2013-12-27 18:15:00
1:35 PM,46.0,22.8,40,30.39,10.0,West,4.6,-,N/A,,Clear,260,2013-12-27 18:35:00
1:55 PM,46.2,22.1,39,30.38,10.0,West,5.8,-,N/A,,Clear,280,2013-12-27 18:55:00
2:15 PM,46.8,22.1,38,30.37,10.0,WNW,4.6,-,N/A,,Clear,290,2013-12-27 19:15:00
2:35 PM,47.7,21.9,36,30.36,10.0,SW,4.6,-,N/A,,Clear,230,2013-12-27 19:35:00
2:55 PM,48.2,21.2,34,30.36,10.0,West,5.8,-,N/A,,Clear,260,2013-12-27 19:55:00
3:15 PM,48.9,21.2,34,30.35,10.0,West,4.6,-,N/A,,Clear,260,2013-12-27 20:15:00
3:35 PM,49.1,19.8,31,30.36,10.0,WSW,5.8,-,N/A,,Clear,240,2013-12-27 20:35:00
3:55 PM,48.7,19.4,31,30.36,10.0,WSW,4.6,-,N/A,,Clear,250,2013-12-27 20:55:00
4:15 PM,48.7,19.8,32,30.35,10.0,SW,6.9,-,N/A,,Clear,230,2013-12-27 21:15:00
4:35 PM,48.2,18.7,31,30.36,10.0,SW,5.8,-,N/A,,Clear,230,2013-12-27 21:35:00
4:55 PM,47.3,18.7,32,30.36,10.0,WSW,5.8,-,N/A,,Clear,240,2013-12-27 21:55:00
5:15 PM,46.4,18.1,32,30.36,10.0,WSW,3.5,-,N/A,,Clear,240,2013-12-27 22:15:00
5:35 PM,45.7,18.0,33,30.36,10.0,Calm,Calm,-,N/A,,Clear,0,2013-12-27 22:35:00
5:55 PM,45.5,18.0,33,30.36,10.0,Calm,Calm,-,N/A,,Clear,0,2013-12-27 22:55:00
6:15 PM,45.0,17.8,34,30.36,10.0,Calm,Calm,-,N/A,,Clear,0,2013-12-27 23:15:00
6:35 PM,44.4,18.0,35,30.36,10.0,Calm,Calm,-,N/A,,Clear,0,2013-12-27 23:35:00
6:55 PM,43.0,18.1,37,30.36,10.0,SW,3.5,-,N/A,,Clear,220,2013-12-27 23:55:00
7:15 PM,43.7,18.1,36,30.36,10.0,SSW,3.5,-,N/A,,Clear,210,2013-12-28 00:15:00
7:35 PM,42.6,18.5,38,30.36,10.0,SSW,3.5,-,N/A,,Clear,210,2013-12-28 00:35:00
7:55 PM,43.0,18.3,37,30.36,10.0,Calm,Calm,-,N/A,,Clear,0,2013-12-28 00:55:00
8:15 PM,41.9,18.7,39,30.37,10.0,SW,3.5,-,N/A,,Clear,220,2013-12-28 01:15:00
8:35 PM,42.3,18.7,39,30.37,10.0,SSW,4.6,-,N/A,,Clear,200,2013-12-28 01:35:00
8:55 PM,41.9,19.4,41,30.36,10.0,SSW,4.6,-,N/A,,Clear,210,2013-12-28 01:55:00
9:15 PM,41.2,19.4,42,30.36,10.0,SW,5.8,-,N/A,,Clear,220,2013-12-28 02:15:00
9:35 PM,40.8,19.4,42,30.36,10.0,SW,3.5,-,N/A,,Clear,220,2013-12-28 02:35:00
9:55 PM,40.3,19.4,43,30.36,10.0,SSW,4.6,-,N/A,,Clear,210,2013-12-28 02:55:00
10:15 PM,39.7,19.4,44,30.36,10.0,SSW,3.5,-,N/A,,Clear,210,2013-12-28 03:15:00
10:35 PM,38.3,19.4,47,30.36,10.0,SW,4.6,-,N/A,,Clear,220,2013-12-28 03:35:00
10:55 PM,38.5,19.8,47,30.36,10.0,Calm,Calm,-,N/A,,Clear,0,2013-12-28 03:55:00
11:15 PM,38.1,20.1,48,30.36,10.0,SSW,5.8,-,N/A,,Clear,200,2013-12-28 04:15:00
11:35 PM,37.6,20.7,51,30.35,10.0,South,3.5,-,N/A,,Clear,190,2013-12-28 04:35:00
11:55 PM,37.4,20.3,50,30.34,10.0,South,3.5,-,N/A,,Clear,190,2013-12-28 04:55:00